Regional Weather Roundup
Issued by NWS

Home | Current Version | Previous Version | Text Only | Print | Product List | Glossary On
Versions: 1 2 3 4 5 6 7 8 9 10 11 12 13 14 15 16 17 18 19 20 21 22 23 24 25 26 27 28 29 30 31 32 33 34 35 36 37 38 39 40 41 42 43 44 45 46 47 48 49 50
000
ASUS43 KOAX 262110
RWRNE

WEATHER ROUNDUP FOR NEBRASKA
NATIONAL WEATHER SERVICE OMAHA NE
400 PM CDT TUE SEP 26 2017

NOTES: SATELLITE DATA IS BEING USED TO AUGMENT CLOUD COVER ABOVE
       12000 FEET.
       "FAIR" INDICATES FEW OR NO CLOUDS BELOW 12,000 FEET WITH NO
       SIGNIFICANT WEATHER AND/OR OBSTRUCTIONS TO VISIBILITY.


NEZ001>004-019>022-054>056-262200-
NEBRASKA PANHANDLE

CITY           SKY/WX    TMP DP  RH WIND       PRES   REMARKS
SCOTTSBLUFF    SUNNY     65  32  29 W7        30.15F
ALLIANCE       SUNNY     65  31  28 NW12G17   30.14S
CHADRON        SUNNY     65  29  25 NW6       30.13F
GORDON         FAIR      64  33  31 NW10      30.13S
KIMBALL        MOSUNNY   63  35  35 CALM      30.18S
SIDNEY         MOSUNNY   65  35  33 VRB3      30.16S
$$

NEZ057>060-069>072-079>082-262200-
SOUTHWEST NEBRASKA

CITY           SKY/WX    TMP DP  RH WIND       PRES   REMARKS
NORTH PLATTE   SUNNY     67  45  45 SW6       30.14S
IMPERIAL       MOSUNNY   68  39  34 SE7       30.14F
LEXINGTON      CLOUDY    65  46  50 CALM      30.14F
MCCOOK         SUNNY     67  50  54 E10       30.14F
OGALLALA       SUNNY     68  39  35 CALM      30.14S
$$

NEZ005>010-023>029-035>040-094-262200-
NORTH CENTRAL NEBRASKA

CITY           SKY/WX    TMP DP  RH WIND       PRES   REMARKS
VALENTINE      PTSUNNY   68  41  37 W10       30.10F
AINSWORTH      PTSUNNY   63  46  52 S5        30.12F
BROKEN BOW     SUNNY     66  46  48 N3        30.13F
O`NEILL        SUNNY     62  47  57 CALM      30.14S
ORD            SUNNY     64  43  46 SE5       30.13S
THEDFORD       SUNNY     67  44  43 CALM      30.14S
$$

NEZ041-046>049-061>064-073>077-083>087-262200-
SOUTH CENTRAL NEBRASKA

CITY           SKY/WX    TMP DP  RH WIND       PRES   REMARKS
GRAND ISLAND   MOSUNNY   64  49  57 E7        30.15S
AURORA         SUNNY     64  48  57 N7        30.14F
HASTINGS       SUNNY     64  49  57 N7        30.15S
HEBRON         PTSUNNY   62  52  68 N5        30.14S
HOLDREGE       SUNNY     62  47  58 NE5       30.14F
YORK           MOSUNNY   63  50  63 N7        30.14F
$$

NEZ011>018-030>034-042>045-262200-
NORTHEAST NEBRASKA

CITY           SKY/WX    TMP DP  RH WIND       PRES   REMARKS
NORFOLK        SUNNY     64  48  56 NW7       30.11S
ALBION         MOSUNNY   64  50  59 NW9       30.14F
BLAIR          CLOUDY    63  52  68 NW10      30.12S
COLUMBUS       MOSUNNY   65  47  52 N8        30.14R
FREMONT        SUNNY     63  50  62 NW8       30.13S
TEKAMAH        MOSUNNY   64  50  60 N7        30.12S
WAYNE          MOSUNNY   64  47  54 N10       30.13R
$$

NEZ050>053-065>068-078-088>093-262200-
SOUTHEAST NEBRASKA

CITY           SKY/WX    TMP DP  RH WIND       PRES   REMARKS
LINCOLN        MOSUNNY   64  50  60 VRB3      30.13F
OMAHA EPPLEY   CLOUDY    63  51  65 NW9       30.12S
BEATRICE       PTSUNNY   66  53  63 N8        30.12S
FALLS CITY     CLOUDY    62  53  72 NW8       30.11S
NEBRASKA CITY  CLOUDY    64  55  70 N5        30.12S
PLATTSMOUTH    MOSUNNY   64  54  68 NW9       30.12R
$$

NEZ044-045-051>053-067-262200-
OMAHA AREA

CITY           SKY/WX    TMP DP  RH WIND       PRES   REMARKS
OMAHA EPPLEY   CLOUDY    63  51  65 NW9       30.12S
BLAIR          CLOUDY    63  52  68 NW10      30.12S
FREMONT        SUNNY     63  50  62 NW8       30.13S
MILLARD        PTSUNNY   64  53  68 NW8       30.13R
OFFUTT AFB     CLOUDY    65  52  62 NW7       30.12R
PLATTSMOUTH    MOSUNNY   64  54  68 NW9       30.12R
WAHOO          FAIR      67  50  54 NW10      30.12F
$$




USA.gov is the U.S. government's official web portal to all federal, state and local government web resources and services.